TEVEL-5 (50998 NORAD) Tracking and Keplerian Element Data

This shows tracking and keplerian element data for the satellite.

Feedback or suggestion? Click here.




ElementValue
Catalog50998
NameTEVEL-5
Epoch Orbit4718
Epoch Day325.2849669
Epoch Year2022
RAAN29.9126
Inclination97.4636
Eccentricity0.0009674
Argument of Perigee229.7571
Mean Anonmoly203.5201
Mean Motion15.17436391
Decay Rate8.355E-05
L11 50998U 22002Q 22325.28496690 .00008355 00000+0 42034-3 0 9991
L22 50998 97.4636 29.9126 0009674 229.7571 203.5201 15.17436391 47189



Live tracking and technical data element details for TEVEL-5 (NORAD 50998). TEVEL-5 can be tracked NOW for your location showing map with azimuth and elevation plus other details from your city location.







IsCatalogInMostPopularTable: catalog: 50998, numindb: 43
Update: records affected: 1



GetName: 50998 TEVEL-5

Hit Count: updated at: Mon, 28 Nov 2022 05:03:04 GMT